,,PA_Meas_PMT16A,,PR_Meas_QMR101_102,,RH_Meas_QMH101,,SR_Meas_QMS101,,TA_Meas_QMH101,,GenWind,,GenWind,
time,status,PA,status,PR,status,RH,status,SR,status,TA,status,DirAvg,status,SpdAvg,
2012-06-12, 00:00:05,VALID,918.984,VALID,0,VALID,88.8052,VALID,0,VALID,19.7988,VALID,342,VALID,0,
2012-06-12, 00:01:05,VALID,918.983,VALID,0,VALID,88.9348,VALID,0,VALID,19.7598,VALID,342,VALID,0,
2012-06-12, 00:02:05,VALID,918.93,VALID,0,VALID,89.0949,VALID,0,VALID,19.7403,VALID,342,VALID,0,
2012-06-12, 00:03:05,VALID,918.92,VALID,0,VALID,88.9348,VALID,0,VALID,19.6833,VALID,342,VALID,0,
2012-06-12, 00:04:05,VALID,918.946,VALID,0,VALID,89.4684,VALID,0,VALID,19.5663,VALID,342,VALID,0,
2012-06-12, 00:05:05,VALID,918.958,VALID,0,VALID,89.9639,VALID,0,VALID,19.4688,VALID,342,VALID,0,
2012-06-12, 00:06:05,VALID,918.944,VALID,0,VALID,90.4366,VALID,0,VALID,19.3908,VALID,342,VALID,0,
2012-06-12, 00:07:05,VALID,918.976,VALID,0,VALID,90.9016,VALID,0,VALID,19.2918,INVALID,360,VALID,0,
2012-06-12, 00:08:05,VALID,918.93,VALID,0,VALID,91.4734,VALID,0,VALID,19.2543,VALID,342,VALID,0,
2012-06-12, 00:09:05,VALID,918.899,VALID,0,VALID,91.8469,VALID,0,VALID,19.2153,VALID,342,VALID,0,
2012-06-12, 00:10:05,VALID,918.883,VALID,0,VALID,92.129,VALID,0,VALID,19.2153,VALID,342,VALID,0,
2012-06-12, 00:11:05,VALID,918.857,VALID,0,VALID,92.1366,VALID,0,VALID,19.2153,VALID,342,VALID,0,
2012-06-12, 00:12:05,VALID,918.832,VALID,0,VALID,92.2891,VALID,0,VALID,19.1749,VALID,342,VALID,0,
2012-06-12, 00:13:05,VALID,918.845,VALID,0,VALID,91.4505,VALID,0,VALID,19.2153,VALID,342,VALID,0,
2012-06-12, 00:14:05,VALID,918.83,VALID,0,VALID,91.9155,VALID,0,VALID,19.1958,VALID,342,VALID,0,
2012-06-12, 00:15:05,VALID,918.83,VALID,0,VALID,92.2052,VALID,0,VALID,19.2153,VALID,342,VALID,0,
2012-06-12, 00:16:05,VALID,918.828,VALID,0,VALID,92.0146,VALID,0,VALID,19.2933,VALID,342,VALID,0,
2012-06-12, 00:17:05,VALID,918.823,VALID,0,VALID,91.6487,VALID,0,VALID,19.3308,VALID,343,VALID,0,
2012-06-12, 00:18:05,VALID,918.776,VALID,0,VALID,91.3514,VALID,0,VALID,19.4103,VALID,342,VALID,0,
2012-06-12, 00:19:05,VALID,918.747,VALID,0,VALID,90.772,VALID,0,VALID,19.4103,VALID,342,VALID,0,
2012-06-12, 00:20:05,VALID,918.752,VALID,0,VALID,91.3285,VALID,0,VALID,19.3503,VALID,342,VALID,0,
2012-06-12, 00:21:05,VALID,918.758,VALID,0,VALID,91.8622,VALID,0,VALID,19.3503,VALID,342,VALID,0,
2012-06-12, 00:22:05,VALID,918.698,VALID,0,VALID,91.9155,VALID,0,VALID,19.3908,VALID,342,VALID,0,
2012-06-12, 00:23:05,VALID,918.702,VALID,0,VALID,92.0223,VALID,0,VALID,19.3908,VALID,342,VALID,0,
2012-06-12, 00:24:05,VALID,918.68,VALID,0,VALID,91.5191,VALID,0,VALID,19.3503,VALID,342,VALID,0,
2012-06-12, 00:25:05,VALID,918.677,VALID,0,VALID,91.6335,VALID,0,VALID,19.3113,VALID,342,VALID,0,
2012-06-12, 00:26:05,VALID,918.636,VALID,0,VALID,91.7173,VALID,0,VALID,19.2738,VALID,231,VALID,0,
2012-06-12, 00:27:05,VALID,918.657,VALID,0,VALID,92.0756,VALID,0,VALID,19.2348,VALID,231,VALID,0,
2012-06-12, 00:28:05,VALID,918.662,VALID,0,VALID,92.3119,VALID,0,VALID,19.2153,VALID,231,VALID,0,
2012-06-12, 00:29:05,VALID,918.617,VALID,0,VALID,92.411,VALID,0,VALID,19.2153,VALID,231,VALID,0,
2012-06-12, 00:30:05,VALID,918.565,VALID,0,VALID,92.3119,VALID,0.107441,VALID,19.2348,VALID,231,VALID,0,
2012-06-12, 00:31:05,VALID,918.571,VALID,0,VALID,91.4886,VALID,0,VALID,19.2933,VALID,52,VALID,0,
2012-06-12, 00:32:05,VALID,918.596,VALID,0,VALID,91.359,VALID,0,VALID,19.2738,VALID,52,VALID,0,
2012-06-12, 00:33:05,VALID,918.604,VALID,0,VALID,91.8088,VALID,0,VALID,19.2139,VALID,52,VALID,0,
2012-06-12, 00:34:05,VALID,918.576,VALID,0,VALID,92.0146,VALID,0,VALID,19.1944,VALID,52,VALID,0,
2012-06-12, 00:35:05,VALID,918.561,VALID,0,VALID,92.0223,VALID,0,VALID,19.1763,VALID,52,VALID,0,
2012-06-12, 00:36:05,VALID,918.591,VALID,0,VALID,92.2052,VALID,0,VALID,19.1568,VALID,52,VALID,0,
2012-06-12, 00:37:05,VALID,918.578,VALID,0,VALID,92.3806,VALID,0,VALID,19.1178,VALID,52,VALID,0,
2012-06-12, 00:38:05,VALID,918.567,VALID,0,VALID,92.5559,VALID,0,VALID,19.1178,VALID,52,VALID,0,
2012-06-12, 00:39:05,VALID,918.565,VALID,0,VALID,92.6245,VALID,0.107441,VALID,19.0774,VALID,70,VALID,0,
2012-06-12, 00:40:05,VALID,918.561,VALID,0,VALID,92.6474,VALID,0,VALID,19.0983,VALID,83,VALID,0,
2012-06-12, 00:41:05,VALID,918.557,VALID,0,VALID,92.9294,VALID,0,VALID,19.0593,VALID,83,VALID,0,
2012-06-12, 00:42:05,VALID,918.586,VALID,0,VALID,93.1581,VALID,0,VALID,19.0983,VALID,83,VALID,0,
2012-06-12, 00:43:05,VALID,918.533,VALID,0,VALID,93.0057,VALID,0,VALID,19.1178,VALID,83,VALID,0,
2012-06-12, 00:44:05,VALID,918.516,VALID,0,VALID,92.6855,VALID,0.107441,VALID,19.1373,VALID,83,VALID,0,
2012-06-12, 00:45:05,VALID,918.462,VALID,0,VALID,92.533,VALID,0.107441,VALID,19.0969,VALID,83,VALID,0,
2012-06-12, 00:46:05,VALID,918.434,VALID,0,VALID,92.5559,VALID,0,VALID,19.0983,VALID,83,VALID,0,
2012-06-12, 00:47:05,VALID,918.392,VALID,0,VALID,92.777,VALID,0.107441,VALID,19.0788,VALID,83,VALID,0,
2012-06-12, 00:48:05,VALID,918.401,VALID,0,VALID,92.8837,VALID,0,VALID,19.0593,VALID,83,VALID,0,
2012-06-12, 00:49:05,VALID,918.397,VALID,0,VALID,93.2268,VALID,0,VALID,19.0579,VALID,83,VALID,0,
2012-06-12, 00:50:05,VALID,918.394,VALID,0,VALID,93.4631,VALID,0.107441,VALID,19.1178,VALID,83,VALID,0,
2012-06-12, 00:51:05,VALID,918.363,VALID,0,VALID,93.3716,VALID,0,VALID,19.1373,VALID,83,VALID,0,
2012-06-12, 00:52:05,VALID,918.334,VALID,0,VALID,92.9904,VALID,0.107441,VALID,19.1359,VALID,83,VALID,0,
2012-06-12, 00:53:05,VALID,918.291,VALID,0,VALID,92.9752,VALID,0,VALID,19.0983,VALID,53,VALID,0,
2012-06-12, 00:54:05,VALID,918.251,VALID,0,VALID,93.1734,VALID,0.107441,VALID,19.0579,VALID,37,VALID,0,
2012-06-12, 00:55:05,VALID,918.226,VALID,0,VALID,93.12,VALID,0,VALID,19.0203,VALID,37,VALID,0,
2012-06-12, 00:56:05,VALID,918.238,VALID,0,VALID,93.3716,VALID,0,VALID,19.0008,VALID,37,VALID,0,
2012-06-12, 00:57:05,VALID,918.252,VALID,0,VALID,93.4478,VALID,0.107441,VALID,19.0189,VALID,37,VALID,0,
2012-06-12, 00:58:05,VALID,918.233,VALID,0,VALID,93.2572,VALID,0,VALID,19.0983,VALID,37,VALID,0,
2012-06-12, 00:59:05,VALID,918.233,VALID,0,VALID,92.8227,VALID,0,VALID,19.1164,VALID,37,VALID,0,
2012-06-12, 01:00:05,VALID,918.198,VALID,0,VALID,92.4034,VALID,0,VALID,19.1359,VALID,37,VALID,0,
2012-06-12, 01:01:05,VALID,918.207,VALID,0,VALID,92.2205,VALID,0,VALID,19.0969,VALID,37,VALID,0,
2012-06-12, 01:02:05,VALID,918.255,VALID,0,VALID,91.9308,VALID,0.107441,VALID,19.1178,VALID,37,VALID,0,
2012-06-12, 01:03:05,VALID,918.241,VALID,0,VALID,91.2752,VALID,0,VALID,19.2348,VALID,37,VALID,0,
2012-06-12, 01:04:05,VALID,918.212,VALID,0,VALID,91.1608,VALID,0,VALID,19.3113,VALID,37,VALID,0,
2012-06-12, 01:05:05,VALID,918.211,VALID,0,VALID,91.3438,VALID,0,VALID,19.3713,VALID,37,VALID,0,
2012-06-12, 01:06:05,VALID,918.188,VALID,0,VALID,91.2904,VALID,0.107441,VALID,19.3713,VALID,37,VALID,0,
2012-06-12, 01:07:05,VALID,918.151,VALID,0,VALID,91.1227,VALID,0.107441,VALID,19.3713,VALID,37,VALID,0,
2012-06-12, 01:08:05,VALID,918.191,VALID,0,VALID,91.237,VALID,0,VALID,19.3113,VALID,37,VALID,0,
2012-06-12, 01:09:05,VALID,918.214,VALID,0,VALID,91.0998,VALID,0,VALID,19.2933,VALID,37,VALID,0,
2012-06-12, 01:10:05,VALID,918.228,VALID,0,VALID,91.298,VALID,0,VALID,19.2528,VALID,37,VALID,0,
2012-06-12, 01:11:05,VALID,918.209,VALID,0,VALID,91.5115,VALID,0.107441,VALID,19.2738,VALID,37,VALID,0,
2012-06-12, 01:12:05,VALID,918.189,VALID,0,VALID,92.0146,VALID,0,VALID,19.2738,VALID,37,VALID,0,
2012-06-12, 01:13:05,VALID,918.128,VALID,0,VALID,92.3196,VALID,0,VALID,19.2528,VALID,37,VALID,0,
2012-06-12, 01:14:05,VALID,918.069,VALID,0,VALID,92.129,VALID,0,VALID,19.2528,VALID,37,VALID,0,
2012-06-12, 01:15:05,VALID,918.065,VALID,0,VALID,91.8317,VALID,0,VALID,19.2139,VALID,37,VALID,0,
2012-06-12, 01:16:05,VALID,918.079,VALID,0,VALID,91.6868,VALID,0.107441,VALID,19.1554,VALID,37,VALID,0,
2012-06-12, 01:17:05,VALID,918.11,VALID,0,VALID,91.7631,VALID,0.107441,VALID,19.1164,VALID,37,VALID,0,
2012-06-12, 01:18:05,VALID,918.116,VALID,0,VALID,91.9079,VALID,0.107441,VALID,19.0983,VALID,37,VALID,0,
2012-06-12, 01:19:05,VALID,918.109,VALID,0,VALID,91.6945,VALID,0,VALID,19.1178,VALID,37,VALID,0,
2012-06-12, 01:20:05,VALID,918.046,VALID,0,VALID,92.1595,VALID,0,VALID,19.1749,VALID,37,VALID,0,
2012-06-12, 01:21:05,VALID,918.087,VALID,0,VALID,92.3272,VALID,0.107441,VALID,19.2334,VALID,37,VALID,0,
2012-06-12, 01:22:05,VALID,918.095,VALID,0,VALID,91.7554,VALID,0.107441,VALID,19.2153,VALID,37,VALID,0,
2012-06-12, 01:23:05,VALID,918.097,VALID,0,VALID,91.8469,VALID,0.107441,VALID,19.1958,VALID,37,VALID,0,
2012-06-12, 01:24:05,VALID,918.104,VALID,0,VALID,91.8622,VALID,0,VALID,19.1583,VALID,37,VALID,0,
2012-06-12, 01:25:05,VALID,918.075,VALID,0,VALID,91.7935,VALID,0,VALID,19.1178,VALID,37,VALID,0,
2012-06-12, 01:26:05,VALID,918.059,VALID,0,VALID,92.0527,VALID,0,VALID,19.1373,VALID,37,VALID,0,
2012-06-12, 01:27:05,VALID,918.031,VALID,0,VALID,92.251,VALID,0,VALID,19.1583,VALID,37,VALID,0,
2012-06-12, 01:28:05,VALID,918.028,VALID,0,VALID,92.0985,VALID,0,VALID,19.1373,VALID,37,VALID,0,
2012-06-12, 01:29:05,VALID,918.029,VALID,0,VALID,91.7935,VALID,0,VALID,19.1373,VALID,37,VALID,0,
2012-06-12, 01:30:05,VALID,917.997,VALID,0,VALID,91.5496,VALID,0,VALID,19.1373,VALID,37,VALID,0,
2012-06-12, 01:31:05,VALID,917.993,VALID,0,VALID,91.4505,VALID,0,VALID,19.1388,VALID,37,VALID,0,
2012-06-12, 01:32:05,VALID,918.018,VALID,0,VALID,91.3133,VALID,0,VALID,19.1388,VALID,37,VALID,0,
2012-06-12, 01:33:05,VALID,917.992,VALID,0,VALID,91.298,VALID,0,VALID,19.1178,VALID,37,VALID,0,
2012-06-12, 01:34:05,VALID,918.003,VALID,0,VALID,91.3514,VALID,0,VALID,19.1388,VALID,37,VALID,0,
2012-06-12, 01:35:05,VALID,917.979,VALID,0,VALID,91.3743,VALID,0,VALID,19.1373,VALID,37,VALID,0,
2012-06-12, 01:36:05,VALID,917.961,VALID,0,VALID,91.2752,VALID,0,VALID,19.1568,VALID,37,VALID,0,
2012-06-12, 01:37:05,VALID,917.954,VALID,0,VALID,91.237,VALID,0,VALID,19.1373,VALID,37,VALID,0,
2012-06-12, 01:38:05,VALID,917.938,VALID,0,VALID,91.1227,VALID,0,VALID,19.1388,VALID,37,VALID,0,
2012-06-12, 01:39:05,VALID,917.975,VALID,0,VALID,91.0236,VALID,0,VALID,19.1388,VALID,37,VALID,0,
2012-06-12, 01:40:05,VALID,917.934,VALID,0,VALID,90.9855,VALID,0,VALID,19.1388,VALID,37,VALID,0,
2012-06-12, 01:41:05,VALID,917.927,VALID,0,VALID,90.8254,VALID,0,VALID,19.1388,VALID,37,VALID,0,
2012-06-12, 01:42:05,VALID,917.928,VALID,0,VALID,90.8178,VALID,0,VALID,19.1178,VALID,37,VALID,0,
2012-06-12, 01:43:05,VALID,917.931,VALID,0,VALID,90.6195,VALID,0,VALID,19.1178,VALID,37,VALID,0,
2012-06-12, 01:44:05,VALID,917.901,VALID,0,VALID,90.5662,VALID,0,VALID,19.1583,VALID,37,VALID,0,
2012-06-12, 01:45:05,VALID,917.905,VALID,0,VALID,90.6424,VALID,0,VALID,19.0983,VALID,37,VALID,0,
2012-06-12, 01:46:05,VALID,917.885,VALID,0,VALID,90.7644,VALID,0,VALID,19.0593,VALID,37,VALID,0,
2012-06-12, 01:47:05,VALID,917.873,VALID,0,VALID,90.955,VALID,0,VALID,19.0398,VALID,37,VALID,0,
2012-06-12, 01:48:05,VALID,917.843,VALID,0,VALID,90.9321,VALID,0,VALID,19.0398,VALID,37,VALID,0,
2012-06-12, 01:49:05,VALID,917.856,VALID,0,VALID,90.9931,VALID,0,VALID,19.0398,VALID,37,VALID,0,
2012-06-12, 01:50:05,VALID,917.861,VALID,0,VALID,90.9016,VALID,0,VALID,19.0593,VALID,37,VALID,0,
2012-06-12, 01:51:05,VALID,917.816,VALID,0,VALID,90.833,VALID,0,VALID,19.0803,VALID,37,VALID,0,
2012-06-12, 01:52:04,VALID,917.794,VALID,0,VALID,91.0312,VALID,0,VALID,19.0803,VALID,37,VALID,0,
2012-06-12, 01:53:04,VALID,917.786,VALID,0,VALID,91.2294,VALID,0,VALID,19.0803,VALID,37,VALID,0,
2012-06-12, 01:54:04,VALID,917.761,VALID,0,VALID,91.3743,VALID,0,VALID,19.0579,VALID,37,VALID,0,
2012-06-12, 01:55:04,VALID,917.768,VALID,0,VALID,91.3438,VALID,0,VALID,19.0593,VALID,37,VALID,0,
2012-06-12, 01:56:04,VALID,917.776,VALID,0,VALID,91.1379,VALID,0,VALID,19.0593,VALID,37,VALID,0,
2012-06-12, 01:57:04,VALID,917.789,VALID,0,VALID,91.0007,VALID,0,VALID,19.0384,VALID,37,VALID,0,
2012-06-12, 01:58:04,VALID,917.743,VALID,0,VALID,90.8635,VALID,0,VALID,19.0774,VALID,37,VALID,0,
2012-06-12, 01:59:04,VALID,917.725,VALID,0,VALID,90.5586,VALID,0,VALID,19.1373,VALID,37,VALID,0,
2012-06-12, 02:00:04,VALID,917.746,VALID,0,VALID,90.2765,VALID,0,VALID,19.1554,VALID,37,VALID,0,
2012-06-12, 02:01:04,VALID,917.733,VALID,0,VALID,90.1164,VALID,0,VALID,19.1763,VALID,37,VALID,0,
2012-06-12, 02:02:04,VALID,917.713,VALID,0,VALID,90.1926,VALID,0,VALID,19.1763,VALID,37,VALID,0,
2012-06-12, 02:03:04,VALID,917.695,VALID,0,VALID,90.124,VALID,0,VALID,19.1763,VALID,37,VALID,0,
2012-06-12, 02:04:04,VALID,917.712,VALID,0,VALID,90.0021,VALID,0,VALID,19.1178,VALID,37,VALID,0,
2012-06-12, 02:05:04,VALID,917.709,VALID,0,VALID,90.0173,VALID,0.107441,VALID,19.1178,VALID,37,VALID,0,
2012-06-12, 02:06:04,VALID,917.654,VALID,0,VALID,90.0859,VALID,0.107441,VALID,19.0774,VALID,37,VALID,0,
2012-06-12, 02:07:04,VALID,917.648,VALID,0,VALID,90.0021,VALID,0,VALID,19.0774,VALID,37,VALID,0,
2012-06-12, 02:08:04,VALID,917.66,VALID,0,VALID,89.8572,VALID,0.107441,VALID,19.0788,VALID,37,VALID,0,
2012-06-12, 02:09:04,VALID,917.675,VALID,0,VALID,89.72,VALID,0,VALID,19.0788,VALID,37,VALID,0,
2012-06-12, 02:10:04,VALID,917.644,VALID,0,VALID,89.6133,VALID,0,VALID,19.1178,VALID,37,VALID,0,
2012-06-12, 02:11:04,VALID,917.637,VALID,0,VALID,89.659,VALID,0,VALID,19.1388,VALID,37,VALID,0,
2012-06-12, 02:12:04,VALID,917.596,VALID,0,VALID,89.6971,VALID,0,VALID,19.0983,VALID,37,VALID,0,
2012-06-12, 02:13:04,VALID,917.613,VALID,0,VALID,89.7733,VALID,0,VALID,19.0803,VALID,37,VALID,0,
2012-06-12, 02:14:04,VALID,917.589,VALID,0,VALID,89.8953,VALID,0,VALID,19.0008,VALID,37,VALID,0,
2012-06-12, 02:15:04,VALID,917.569,VALID,0,VALID,90.124,VALID,0,VALID,18.9828,VALID,37,VALID,0,
2012-06-12, 02:16:04,VALID,917.544,VALID,0,VALID,90.3299,VALID,0,VALID,18.9243,VALID,37,VALID,0,
2012-06-12, 02:17:04,VALID,917.514,VALID,0,VALID,90.4213,VALID,0,VALID,18.9048,VALID,37,VALID,0,
2012-06-12, 02:18:04,VALID,917.459,VALID,0,VALID,90.8711,VALID,0,VALID,18.9048,VALID,37,VALID,0,
2012-06-12, 02:19:04,VALID,917.483,VALID,0,VALID,90.9169,VALID,0,VALID,18.9438,VALID,37,VALID,0,
2012-06-12, 02:20:04,VALID,917.487,VALID,0,VALID,90.5281,VALID,0,VALID,18.9438,VALID,37,VALID,0,
2012-06-12, 02:21:04,VALID,917.481,VALID,0,VALID,90.8483,VALID,0,VALID,18.9229,VALID,37,VALID,0,
2012-06-12, 02:22:04,VALID,917.508,VALID,0,VALID,91.1684,VALID,0,VALID,19.0023,VALID,37,VALID,0,
2012-06-12, 02:23:04,VALID,917.485,VALID,0,VALID,90.8025,VALID,0,VALID,19.0608,VALID,37,VALID,0,
2012-06-12, 02:24:04,VALID,917.461,VALID,0,VALID,90.3832,VALID,0,VALID,19.0983,VALID,37,VALID,0,
2012-06-12, 02:25:04,VALID,917.47,VALID,0,VALID,89.5751,VALID,0,VALID,19.0983,VALID,37,VALID,0,
2012-06-12, 02:26:04,VALID,917.46,VALID,0,VALID,89.0949,VALID,0,VALID,19.0203,VALID,37,VALID,0,
2012-06-12, 02:27:04,VALID,917.451,VALID,0,VALID,90.3375,VALID,0,VALID,18.9619,VALID,37,VALID,0,
2012-06-12, 02:28:04,VALID,917.43,VALID,0,VALID,90.5357,VALID,0,VALID,18.9229,VALID,37,VALID,0,
2012-06-12, 02:29:04,VALID,917.378,VALID,0,VALID,90.8101,VALID,0,VALID,18.9034,VALID,37,VALID,0,
2012-06-12, 02:30:04,VALID,917.334,VALID,0,VALID,91.3438,VALID,0,VALID,18.9229,VALID,37,VALID,0,
2012-06-12, 02:31:04,VALID,917.297,VALID,0,VALID,91.5572,VALID,0,VALID,18.9424,VALID,37,VALID,0,
2012-06-12, 02:32:04,VALID,917.301,VALID,0,VALID,91.8545,VALID,0,VALID,18.9229,VALID,37,VALID,0,
2012-06-12, 02:33:04,VALID,917.273,VALID,0,VALID,92.1366,VALID,0,VALID,18.9229,VALID,37,VALID,0,
2012-06-12, 02:34:04,VALID,917.264,VALID,0,VALID,92.0527,VALID,0,VALID,18.9424,VALID,37,VALID,0,
2012-06-12, 02:35:04,VALID,917.255,VALID,0,VALID,91.6868,VALID,0,VALID,18.9424,VALID,37,VALID,0,
2012-06-12, 02:36:04,VALID,917.261,VALID,0,VALID,91.298,VALID,0,VALID,18.9619,VALID,37,VALID,0,
2012-06-12, 02:37:04,VALID,917.284,VALID,0,VALID,90.8864,VALID,0,VALID,19.0023,VALID,37,VALID,0,
2012-06-12, 02:38:04,VALID,917.311,VALID,0,VALID,90.8178,VALID,0,VALID,19.0023,VALID,37,VALID,0,
2012-06-12, 02:39:04,VALID,917.26,VALID,0,VALID,90.5128,VALID,0,VALID,18.9619,VALID,37,VALID,0,
2012-06-12, 02:40:04,VALID,917.267,VALID,0,VALID,90.368,VALID,0,VALID,18.8644,VALID,37,VALID,0,
2012-06-12, 02:41:04,VALID,917.254,VALID,0,VALID,90.6348,VALID,0,VALID,18.8254,VALID,37,VALID,0,
2012-06-12, 02:42:04,VALID,917.256,VALID,0,VALID,90.894,VALID,0,VALID,18.7669,VALID,37,VALID,0,
2012-06-12, 02:43:04,VALID,917.253,VALID,0,VALID,91.0922,VALID,0,VALID,18.7474,VALID,37,VALID,0,
2012-06-12, 02:44:04,VALID,917.27,VALID,0,VALID,91.4505,VALID,0,VALID,18.746,VALID,37,VALID,0,
2012-06-12, 02:45:04,VALID,917.27,VALID,0,VALID,91.9689,VALID,0,VALID,18.8463,VALID,37,VALID,0,
2012-06-12, 02:46:04,VALID,917.29,VALID,0,VALID,91.7631,VALID,0,VALID,18.8644,VALID,37,VALID,0,
2012-06-12, 02:47:04,VALID,917.266,VALID,0,VALID,91.2752,VALID,0,VALID,18.8449,VALID,37,VALID,0,
2012-06-12, 02:48:04,VALID,917.304,VALID,0,VALID,90.1393,VALID,0,VALID,18.7474,VALID,37,VALID,0,
2012-06-12, 02:49:04,VALID,917.28,VALID,0,VALID,91.1074,VALID,0,VALID,18.6694,VALID,37,VALID,0,
2012-06-12, 02:50:04,VALID,917.297,VALID,0,VALID,91.8622,VALID,0,VALID,18.6109,VALID,37,VALID,0,
2012-06-12, 02:51:04,VALID,917.264,VALID,0,VALID,92.3196,VALID,0,VALID,18.572,VALID,37,VALID,0,
2012-06-12, 02:52:04,VALID,917.238,VALID,0,VALID,92.3729,VALID,0,VALID,18.5525,VALID,37,VALID,0,
2012-06-12, 02:53:04,VALID,917.238,VALID,0,VALID,92.1671,VALID,0,VALID,18.5914,VALID,37,VALID,0,
2012-06-12, 02:54:04,VALID,917.237,VALID,0,VALID,91.946,VALID,0,VALID,18.6095,VALID,37,VALID,0,
2012-06-12, 02:55:04,VALID,917.254,VALID,0,VALID,91.5877,VALID,0,VALID,18.6499,VALID,37,VALID,0,
2012-06-12, 02:56:04,VALID,917.253,VALID,0,VALID,91.5267,VALID,0,VALID,18.6485,VALID,37,VALID,0,
2012-06-12, 02:57:04,VALID,917.276,VALID,0,VALID,91.3133,VALID,0,VALID,18.6889,VALID,37,VALID,0,
2012-06-12, 02:58:04,VALID,917.301,VALID,0,VALID,91.1227,VALID,0,VALID,18.7279,VALID,37,VALID,0,
2012-06-12, 02:59:04,VALID,917.263,VALID,0,VALID,90.7796,VALID,0,VALID,18.7474,VALID,37,VALID,0,
2012-06-12, 03:00:04,VALID,917.237,VALID,0,VALID,90.5204,VALID,0,VALID,18.7864,VALID,37,VALID,0,
2012-06-12, 03:01:04,VALID,917.237,VALID,0,VALID,90.3451,VALID,0,VALID,18.8254,VALID,37,VALID,0,
2012-06-12, 03:02:04,VALID,917.264,VALID,0,VALID,90.0707,VALID,0,VALID,18.8644,VALID,37,VALID,0,
2012-06-12, 03:03:04,VALID,917.227,VALID,0,VALID,89.5294,VALID,0,VALID,18.9034,VALID,37,VALID,0,
2012-06-12, 03:04:04,VALID,917.222,VALID,0,VALID,89.6209,VALID,0,VALID,18.9229,VALID,37,VALID,0,
2012-06-12, 03:05:04,VALID,917.271,VALID,0,VALID,89.6361,VALID,0,VALID,18.9214,VALID,37,VALID,0,
2012-06-12, 03:06:04,VALID,917.264,VALID,0,VALID,89.7429,VALID,0,VALID,18.9619,VALID,37,VALID,0,
2012-06-12, 03:07:04,VALID,917.221,VALID,0,VALID,89.6285,VALID,0,VALID,19.0008,VALID,37,VALID,0,
2012-06-12, 03:08:04,VALID,917.213,VALID,0,VALID,89.3846,VALID,0,VALID,19.0008,VALID,37,VALID,0,
2012-06-12, 03:09:04,VALID,917.217,VALID,0,VALID,89.4227,VALID,0,VALID,19.0398,VALID,37,VALID,0,
2012-06-12, 03:10:04,VALID,917.284,VALID,0,VALID,89.194,VALID,0,VALID,19.0398,VALID,37,VALID,0,
2012-06-12, 03:11:04,VALID,917.289,VALID,0,VALID,89.1254,VALID,0,VALID,19.0593,VALID,37,VALID,0,
2012-06-12, 03:12:04,VALID,917.32,VALID,0,VALID,89.194,VALID,0,VALID,19.0593,VALID,37,VALID,0,
2012-06-12, 03:13:04,VALID,917.331,VALID,0,VALID,89.1787,VALID,0,VALID,19.0398,VALID,37,VALID,0,
2012-06-12, 03:14:04,VALID,917.33,VALID,0,VALID,89.2778,VALID,0,VALID,19.0398,VALID,37,VALID,0,
2012-06-12, 03:15:04,VALID,917.344,VALID,0,VALID,89.4837,VALID,0,VALID,19.0008,VALID,37,VALID,0,
2012-06-12, 03:16:04,VALID,917.362,VALID,0,VALID,89.4608,VALID,0,VALID,18.9619,VALID,37,VALID,0,
2012-06-12, 03:17:04,VALID,917.361,VALID,0,VALID,89.6819,VALID,0,VALID,18.9034,VALID,37,VALID,0,
2012-06-12, 03:18:04,VALID,917.391,VALID,0,VALID,89.6895,VALID,0,VALID,18.8449,VALID,37,VALID,0,
2012-06-12, 03:19:04,VALID,917.381,VALID,0,VALID,90.0021,VALID,0,VALID,18.8059,VALID,37,VALID,0,
2012-06-12, 03:20:04,VALID,917.376,VALID,0,VALID,90.1164,VALID,0,VALID,18.7864,VALID,37,VALID,0,
2012-06-12, 03:21:04,VALID,917.35,VALID,0,VALID,90.2536,VALID,0,VALID,18.8059,VALID,37,VALID,0,
2012-06-12, 03:22:04,VALID,917.36,VALID,0,VALID,90.0249,VALID,0,VALID,18.8449,VALID,37,VALID,0,
2012-06-12, 03:23:04,VALID,917.378,VALID,0,VALID,89.6133,VALID,0,VALID,18.8839,VALID,37,VALID,0,
2012-06-12, 03:24:04,VALID,917.365,VALID,0,VALID,89.255,VALID,0,VALID,18.9034,VALID,37,VALID,0,
2012-06-12, 03:25:04,VALID,917.423,VALID,0,VALID,89.2626,VALID,0,VALID,18.9034,VALID,37,VALID,0,
2012-06-12, 03:26:04,VALID,917.387,VALID,0,VALID,89.5904,VALID,0,VALID,18.8644,VALID,37,VALID,0,
2012-06-12, 03:27:04,VALID,917.385,VALID,0,VALID,89.5904,VALID,0,VALID,18.8644,VALID,37,VALID,0,
2012-06-12, 03:28:04,VALID,917.39,VALID,0,VALID,89.6209,VALID,0,VALID,18.8449,VALID,37,VALID,0,
2012-06-12, 03:29:04,VALID,917.413,VALID,0,VALID,89.6514,VALID,0,VALID,18.8059,VALID,37,VALID,0,
2012-06-12, 03:30:04,VALID,917.423,VALID,0,VALID,89.8267,VALID,0,VALID,18.7878,VALID,37,VALID,0,
2012-06-12, 03:31:04,VALID,917.411,VALID,0,VALID,90.2612,VALID,0,VALID,18.7474,VALID,37,VALID,0,
2012-06-12, 03:32:04,VALID,917.389,VALID,0,VALID,90.3146,VALID,0,VALID,18.7474,VALID,37,VALID,0,
2012-06-12, 03:33:04,VALID,917.37,VALID,0,VALID,90.2003,VALID,0,VALID,18.7669,VALID,37,VALID,0,
2012-06-12, 03:34:04,VALID,917.346,VALID,0,VALID,90.0554,VALID,0,VALID,18.7669,VALID,37,VALID,0,
2012-06-12, 03:35:04,VALID,917.338,VALID,0,VALID,90.1621,VALID,0,VALID,18.7864,VALID,37,VALID,0,
2012-06-12, 03:36:04,VALID,917.331,VALID,0,VALID,89.9563,VALID,0,VALID,18.8254,VALID,37,VALID,0,
2012-06-12, 03:37:04,VALID,917.371,VALID,0,VALID,89.7505,VALID,0,VALID,18.8644,VALID,37,VALID,0,
2012-06-12, 03:38:04,VALID,917.397,VALID,0,VALID,89.4989,VALID,0,VALID,18.8839,VALID,37,VALID,0,
2012-06-12, 03:39:04,VALID,917.408,VALID,0,VALID,89.5218,VALID,0,VALID,18.9034,VALID,37,VALID,0,
2012-06-12, 03:40:04,VALID,917.411,VALID,0,VALID,89.4303,VALID,0,VALID,18.9438,VALID,37,VALID,0,
2012-06-12, 03:41:04,VALID,917.435,VALID,0,VALID,89.255,VALID,0,VALID,18.9229,VALID,37,VALID,0,
2012-06-12, 03:42:04,VALID,917.396,VALID,0,VALID,89.4379,VALID,0,VALID,18.8839,VALID,37,VALID,0,
2012-06-12, 03:43:04,VALID,917.423,VALID,0,VALID,89.7886,VALID,0,VALID,18.8644,VALID,37,VALID,0,
2012-06-12, 03:44:04,VALID,917.468,VALID,0,VALID,89.9106,VALID,0,VALID,18.8644,VALID,37,VALID,0,
2012-06-12, 03:45:04,VALID,917.481,VALID,0,VALID,89.8496,VALID,0,VALID,18.8449,VALID,37,VALID,0,
2012-06-12, 03:46:04,VALID,917.509,VALID,0,VALID,89.9868,VALID,0,VALID,18.8449,VALID,37,VALID,0,
2012-06-12, 03:47:04,VALID,917.5,VALID,0,VALID,89.9029,VALID,0,VALID,18.8449,VALID,37,VALID,0,
2012-06-12, 03:48:04,VALID,917.487,VALID,0,VALID,89.9487,VALID,0,VALID,18.8449,VALID,37,VALID,0,
2012-06-12, 03:49:04,VALID,917.46,VALID,0,VALID,89.9868,VALID,0,VALID,18.8644,VALID,37,VALID,0,
2012-06-12, 03:50:04,VALID,917.468,VALID,0,VALID,89.9792,VALID,0,VALID,18.8644,VALID,37,VALID,0,
2012-06-12, 03:51:04,VALID,917.48,VALID,0,VALID,89.8953,VALID,0,VALID,18.8853,VALID,37,VALID,0,
2012-06-12, 03:52:04,VALID,917.506,VALID,0,VALID,89.8877,VALID,0,VALID,18.8449,VALID,37,VALID,0,
2012-06-12, 03:53:04,VALID,917.466,VALID,0,VALID,90.1469,VALID,0,VALID,18.8449,VALID,37,VALID,0,
2012-06-12, 03:54:04,VALID,917.488,VALID,0,VALID,90.1088,VALID,0,VALID,18.8254,VALID,37,VALID,0,
2012-06-12, 03:55:04,VALID,917.502,VALID,0,VALID,90.3527,VALID,0,VALID,18.8059,VALID,37,VALID,0,
2012-06-12, 03:56:04,VALID,917.535,VALID,0,VALID,90.429,VALID,0,VALID,18.7864,VALID,37,VALID,0,
2012-06-12, 03:57:04,VALID,917.515,VALID,0,VALID,90.6729,VALID,0,VALID,18.7669,VALID,37,VALID,0,
2012-06-12, 03:58:04,VALID,917.522,VALID,0,VALID,90.3756,VALID,0,VALID,18.8059,VALID,37,VALID,0,
2012-06-12, 03:59:04,VALID,917.48,VALID,0,VALID,90.3908,VALID,0,VALID,18.8254,VALID,37,VALID,0,
2012-06-12, 04:00:04,VALID,917.475,VALID,0,VALID,90.185,VALID,0,VALID,18.8644,VALID,37,VALID,0,